www.pogodaiklimat.ru
ПОГОДА в Лас-Вегасе
Время
и дата
14:53 21.06
15:08 21.06
15:16 21.06
15:27 21.06
15:34 21.06
15:53 21.06
15:56 21.06
17:19 21.06
17:30 21.06
20:50 21.06
20:53 21.06
21:01 21.06
21:46 21.06
21:53 21.06
22:46 21.06
22:53 21.06
23:09 21.06
23:24 21.06
23:53 21.06
00:53 22.06
01:53 22.06
02:53 22.06
03:08 22.06
03:12 22.06
03:45 22.06
03:53 22.06
03:59 22.06
04:16 22.06
04:53 22.06
05:53 22.06
06:53 22.06
07:53 22.06
08:53 22.06
09:53 22.06
10:53 22.06
11:53 22.06
12:53 22.06
13:53 22.06
14:53 22.06
15:53 22.06
16:53 22.06
17:53 22.06
18:53 22.06
19:53 22.06
20:53 22.06
21:53 22.06
22:53 22.06
23:53 22.06
Ветер
(напр.,м/с)
Видим. Явления Облачность Т
(С)
Тd
(С)
f
(%)
Тe
(С)
Тes
(С)
Комфортность P
(гПа)
Po
(гПа)
Тmin
(С)
Tmax
(С)
R
(мм)
R24
(мм)
S
(см)
Ю 8 8 км слабый дождь, дымка 10/10 240 m
[Ns]
+16.7 +15.6 93 +15 +15 1018.0 796.3
Ю 7 4 км дождь, дымка 10/8 180 m
[Ac Ns]
+16.7 +15.6 93 +15 +16 796.3
Ю 7 4 км гроза с сильным дождем, дымка 10/10 390 m
[Cb]
+16.7 +15.6 93 +15 +15 796.0
Ю 10
{13}
3 км гроза с сильным дождем, дымка 10/10 330 m
[Cb]
+16.7 +15.6 93 +15 +15 795.8
Ю 11
{14}
4 км сильный дождь, дымка 10/8 450 m
[Ac Ns]
+16.7 +15.6 93 +15 +15 795.8
Ю 12
{15}
6 км слабый дождь, дымка 10/8 750 m
[Ac Ns]
+16.7 +15.6 93 +15 +15 1016.9 795.5
Ю 15
{19}
2 км дождь, дымка 10/8 750 m
[Ac Ns]
+16.7 +15.6 93 +14 +14 795.3
ЮВ 5 6 км слабый дождь, дымка 10/10 330 m
[Ns]
+16.7 +15.0 90 +16 +16 795.8
ЮВ 6 16 км слабый дождь 10/10 270 m
[Ns]
+16.7 +15.6 93 +16 +16 795.8
ЮЗ 3 16 км 8/5 240 m
[Ac]
+16.0 +15.0 94 +15 +15 796.8
ЮЗ 3 16 км 8/5 240 m
[Ac]
+15.6 +15.0 96 +15 +15 1018.5 796.8
ЮЗ 3 16 км 8/8 180 m
[Ac]
+15.6 +15.0 96 +15 +15 796.8
ЮВ 4 16 км слабый дождь 10/8 210 m
[Ac Ns]
+16.1 +15.6 97 +15 +15 796.6
ЮВ 3 16 км слабый дождь 10/2 210 m
[Ac Ns]
+16.1 +15.6 97 +16 +16 1017.8 796.6
Ю 4 14 км 10/10 180 м +16.1 +15.6 97 +15 +15 797.1
Ю 3 14 км 10/10 150 м +16.1 +15.6 97 +16 +16 1018.4 797.1 +15.6 +16.7 6.9
Ю 4 16 км 8/8 120 m
[Ac]
+16.1 +15.6 97 +15 +15 796.8
Ю 4 16 км 8/8 90 m
[Ac]
+16.1 +15.6 97 +15 +15 796.6
Ю 4 14 км 5/2 60 m
[Ac]
+15.6 +15.0 96 +15 +15 1017.8 796.6
Ю 5 16 км 5/0 3300 m
[Ac]
+15.6 +15.0 96 +14 +14 1017.4 796.0
Ю 4 16 км 5/0 3300 m
[Ac]
+15.0 +14.4 96 +14 +14 1017.2 795.8
ЮЗ 4 16 км 2/0 3300 m
[Ac]
+15.0 +13.9 93 +14 +14 1017.0 795.5
ЮЗ 3 16 км 5/5 150 м +15.0 +14.4 96 +14 +14 795.5
ЮЗ 2 16 км 8/8 90 м +15.0 +14.4 96 +15 +15 795.5
ЮЗ 2 4 км дымка 10/10 60 м +15.0 +14.4 96 +15 +15 795.5
ЮЗ 2 8 км дымка 8/8 60 м +14.4 +13.9 97 +14 +14 1017.5 795.5
штиль 0 3 км дымка 5/5 60 м +14.4 +13.9 97 +14 +14 795.5
Ю 2 5 км дымка ясно +13.9 +13.3 96 +13 +13 795.3
Ю 4 16 км ясно +14.4 +13.9 97 +13 +13 1016.7 795.0 +13.9 +16.1 46.7
Ю 2 16 км ясно +15.0 +13.9 93 +15 +15 1016.7 795.3
СВ 2 16 км ясно +16.1 +14.4 90 +16 +17 1016.9 795.5
ЮЗ 2 16 км ясно +17.8 +14.4 80 +18 +22 1016.8 795.8
З 2 16 км 10/2 1800 m
[Ac]
+17.2 +14.4 84 +18 +19 1017.2 795.8
СЗ 2 16 км 8/2 1800 m
[Ac]
+20.6 +12.8 61 +24 +28 комфорт 1016.5 795.8
СЗ 2 16 км 5/0 2100 m
[Ac]
+21.7 +14.4 63 +25 +36 комфорт 1016.4 795.8 +14.4 +21.7
штиль 0 16 км ясно +22.8 +15.0 61 +27 +54 опасность
солнечного
удара
1015.9 795.8
СЗ 2 16 км 8/0 3000 m
[Ac]
+22.8 +14.4 59 +26 +36 жарко 1015.9 795.8
Ю 2 16 км 8/0 3300 m
[Ac]
+22.2 +16.7 71 +27 +35 душно 1016.2 795.8
штиль 0 16 км 8/0 2850 m
[Ac]
+22.8 +15.0 61 +27 +37 душно 1016.0 795.5
ЮЗ 3 16 км 2/0 2550 m
[Ac]
+22.8 +16.1 66 +27 +36 душно 1015.2 795.0
СЗ 2 16 км ясно +22.8 +15.0 61 +27 +35 душно 1014.9 794.7 +21.7 +23.3
штиль 0 16 км ясно +22.2 +15.6 66 +26 +32 душно 1015.3 795.0
штиль 0 16 км ясно +21.7 +14.4 63 +25 +26 комфорт 1015.7 795.5
СВ 2 16 км ясно +21.7 +12.2 55 +24 +24 комфорт 1015.4 795.5
С 3 16 км ясно +18.9 +15.6 81 +20 +20 1017.0 796.0
С 3 16 км ясно +17.2 +14.4 84 +17 +17 1017.2 796.6
С 3 16 км 2/0 3000 m
[Ac]
+17.2 +13.3 78 +17 +17 1016.9 796.6 +17.2 +22.8
С 2 16 км ясно +17.2 +11.7 70 +18 +18 1016.5 796.3
Местоположение метеостанции Las Vegas Municipal Airport: широта 35.6542 долгота -105.1425 высота над уровнем моря 2096 м.
В архиве по умолчанию представлена погода в Лас-Вегасе за последние 1-2 суток. Обновление информации о фактической погоде в базе происходит ежечасно! Архивные данные за месяц целиком и за предыдущие месяцы Вы можете получить, выбрав интересующий диапазон дат из раскрывающегося списка и нажав кнопку "Ввод!".
Внимание! Архив погоды МЕТАР в базе сайта по станциям, не включенным в климатический монитор, хранится не более 60 дней. Нет смысла пытаться выбрать более раннюю дату.
*Определитесь, кто Вы:
Внимание! Время в таблицах - местное (без учета летнего времени). Для получения всемирного времени необходимо вычесть поправку, которая равна -7 ч.
Смотрите также архив погоды в соседних городах и на ближайших метеорологических станциях:
Партнеры нашего сайта:      
Пояснения к столбцам:
  • Ветер - указаны скорость ветра в м/с - средняя за 10 мин, порывы в срок и между сроками (в фигурных скобках) и направление, откуда дует ветер: С - северный,
  • СВ - северо-восточный, В - восточный, ЮВ - юго-восточный, Ю - южный, ЮЗ - юго-западный, З - западный, СЗ - северо-западный.
  • Видимость - горизонтальная дальность видимости в метрах или километрах. При видимости от 1 до 10 км при отсутствии осадков обычно наблюдается дымка, при ухудшении видимости до 1 км и менее - туман. В сухую погоду видимость может ухудшаться дымом, пылью или мглою.
  • Явления - указаны атмосферные явления, наблюдавшиеся в срок или в последний час перед сроком; фигурными скобками обозначены явления, наблюдавшиеся между сроками (за 1-3 часа до срока); квадратными скобками обозначены град или гололедные отложения с указанием их диаметра в мм.
  • Облачность - указаны через наклонную черту общая и нижняя облачность в баллах и высота нижней границы облаков в метрах; квадратными скобками обозначены формы облаков: Ci - перистые, Cs - перисто-слоистые, Cc - перисто-кучевые, Ac - высококучевые, As - высокослоистые, Sc - слоисто-кучевые, Ns - слоисто-дождевые, Cu - кучевые, Cb - кучево-дождевые. Подробнее классификацию облаков см. в Атласе облаков (PDF).
  • T - Температура воздуха - температура, измеренная на высоте 2 м над землей.
  • Td - Температура точки росы - температура, при понижении до которой содержащийся в воздухе водяной пар достигнет насыщения.
  • f - Относительная влажность воздуха - влажноcть воздуха, измеренная на высоте 2 м над землей.
  • Te - Эффективная температура - температура, которую ощущает одетый по сезону человек в тени. Характеристика душности погоды. При расчете учитывается влияние влажности воздуха и скорости ветра на теплоощущения человека.
  • Tes - Эффективная температура на солнце - температура, которую ощущает человек, с поправкой на солнечный нагрев. Характеристика знойности погоды. Зависит от высоты солнца над горизонтом, облачности и скорости ветра. Ночью, в пасмурную погоду, а также при ветре 12 м/с и более поправка равна нулю.
  • P - Атмосферное давление - приведенное к уровню моря атмосферное давление.
  • Po - Атмосферное давление - измеренное на уровне метеостанции атмосферное давление.
  • Tmin - Минимальная температура - минимум температуры воздуха на высоте 2 м над землей.
  • Tmax - Максимальная температура - максимум температуры воздуха на высоте 2 м над землей.
  • R - Количество осадков - Количество выпавших осадков за период времени, мм. При наведении курсора мыши на число - период времени, за который выпало указанное количество осадков.
  • R24 - Количество осадков - Количество выпавших осадков за 24 часа, мм.
  • S - Снежный покров - Высота снежного покрова, см. При наведении курсора мыши на число - состояние снежного покрова и степень покрытия местности в баллах.